Weather in Tuapse

Russia / Krasnodar Krai     44°05′44″N   39°04′24″E
temp.,
°C
wind,
m/s
gust,
m/s
humid.,
%
clouds,
%
prec.,
mm/h
press.,
hPa
HPBL,
m
22 october, fri
fri2200:00+16sse67570 0.0 1022518
03:00+17sse57590 0.0 1021555
06:00+17sse45600 0.0 1020544
09:00+17sse45560 0.0 1021360
12:00+17sse46620 0.0 1021452
15:00+18sse45670 0.0 1020452
18:00+18sse34670 0.0 1020464
21:00+18sse33670 0.0 1021368
23 october, sat
sat2300:00+17se44650 0.0 1020312
03:00+17se33590 0.0 1020271
06:00+17ese23545 0.0 1020265
09:00+17se33530 0.0 1020294
12:00+17sse33585 0.0 1020327
15:00+18sse22655 0.0 1020365
18:00+18se226826 0.0 1020210
21:00+17se227099 0.0 1020237
24 october, sun
sun2400:00+17sse337191 0.0 1020332
03:00+17sse4468100 0.0 1020398
06:00+17sse5567100 0.0 1020478
09:00+17sse666697 0.0 1020539
12:00+17sse7772100 0.0 1019654
15:00+17s7775100 1.1 1018634
18:00+14nne9883100 2.9 1019390
21:00+11n101183100 8.6 1021604
25 october, mon
mon2500:00+11n101173100 0.4 1022727
03:00+11nnw911655 0.4 10241068
06:00+12n79577 0.0 10251444
09:00+11nnw896128 0.0 10271536
12:00+10nnw776397 0.1 10281567
15:00+10nnw88555 0.1 10281472
18:00+10n1010591 0.0 10291057
21:00+9nne88621 0.0 1029703
26 october, tue
tue2600:00+9ne656325 0.0 1029511
03:00+8ne43625 0.0 1030406
06:00+8ne65665 0.0 1030342
09:00+9ne65634 0.0 1030346
12:00+11ne33504 0.0 1029568
15:00+12nne33433 0.0 1028712
18:00+13nne32450 0.0 1027596
21:00+12ene43530 0.0 1026344